Wind_Speed
22 16 19 21 21 21 9 14 10 7 6 9 12 8 14 17 20 24 23 25 24 23 21 21 20 19 20 19 19 18 17 17 16 13 12 12 11 11 12 10 10 11 9 9
21 23 23 21 20 17 6 15 9 7 11 10 9 11 14 18 18 24 25 27 26 25 25 23 23 21 22 22 21 20 19 18 16 14 12 11 12 11 8 12 10 9 10 9
26 24 24 22 22 19 20 19 12 7 7 13 12 13 14 17 19 32 33 28 27 27 28 27 26 25 24 24 22 21 20 19 18 15 13 15 13 12 10 8 8 10 12 10
26 28 24 24 22 21 21 18 16 5 9 11 12 7 9 16 18 21 30 28 29 29 28 29 28 27 26 25 23 21 21 20 19 17 14 17 13 12 13 10 12 11 11 9
28 28 28 25 26 22 19 16 20 16 13 16 19 7 9 17 17 20 24 34 33 33 32 32 31 30 28 26 24 23 22 21 21 20 16 16 17 13 13 12 12 11 12 10
29 30 26 27 23 23 21 21 13 15 15 15 18 13 11 17 17 19 24 28 31 32 33 33 30 29 29 27 25 24 24 24 23 21 22 19 18 15 14 13 10 12 10 10
26 32 25 30 23 20 26 20 14 13 13 14 19 14 11 7 5 13 21 28 32 33 34 33 34 34 32 32 30 27 27 25 24 22 24 21 19 17 15 17 12 12 11 11
22 22 32 23 23 25 26 24 17 20 14 16 18 9 8 5 3 15 19 28 31 30 33 36 37 37 35 34 32 30 30 29 27 24 24 25 22 21 18 18 15 12 11 10
21 27 21 25 24 24 25 25 25 24 18 13 15 18 10 8 9 9 13 26 31 32 32 34 36 36 36 36 36 33 32 30 30 27 26 28 28 24 20 19 19 13 12 10
22 21 28 30 23 26 28 21 21 18 23 21 17 12 13 19 12 11 14 17 23 30 30 31 34 37 36 35 34 33 32 30 29 29 29 28 32 30 24 24 18 20 15 16
15 19 21 24 25 26 21 23 18 21 20 17 16 13 9 5 14 11 8 13 20 26 31 31 32 34 35 35 35 34 33 31 30 31 29 28 28 29 30 22 21 23 20 17
18 18 15 20 19 25 23 24 25 15 24 17 17 12 9 19 14 8 6 5 7 23 29 30 30 30 33 34 34 34 33 32 32 32 31 31 27 28 27 30 25 21 24 23
13 16 15 21 21 16 21 26 25 23 19 23 16 16 11 10 10 9 10 3 5 13 23 28 29 29 30 32 33 34 34 32 29 31 33 29 28 27 30 28 26 25 23 25
10 16 16 17 18 18 25 24 28 25 19 19 20 19 14 15 16 9 11 7 3 5 18 22 25 26 27 29 32 33 33 32 31 30 31 33 30 27 28 30 29 30 29 28
10 16 20 26 26 23 21 25 27 25 25 24 21 20 19 14 13 17 12 10 9 7 7 2 18 20 22 24 28 29 29 30 30 32 33 31 31 29 27 28 30 30 32 30
16 12 17 21 21 26 22 19 26 29 28 25 25 21 16 9 22 18 12 13 15 13 11 12 8 14 15 18 21 22 25 26 27 29 31 31 31 34 34 31 29 32 33 35
14 14 15 15 17 21 24 22 18 20 26 23 21 21 13 18 18 14 11 12 11 8 7 4 6 6 3 8 17 19 20 22 23 26 27 29 29 30 32 34 32 30 33 35
14 12 10 16 17 25 16 20 21 18 16 21 23 6 15 16 17 15 12 10 10 7 3 3 2 5 7 8 5 14 18 18 19 20 21 23 25 26 26 27 29 28 27 28
17 12 12 15 17 13 8 4 10 13 13 7 11 10 11 13 14 15 10 9 7 4 3 3 4 5 6 7 8 14 16 17 17 18 17 19 19 19 24 22 21 22 24 28
16 13 10 16 19 10 16 13 9 5 5 5 3 6 4 5 7 5 8 7 7 6 4 3 6 2 3 3 11 13 17 19 19 20 16 20 21 20 15 18 15 9 21 25
12 10 16 16 14 3 10 17 12 12 3 10 7 7 5 3 9 15 10 7 6 7 8 8 8 5 8 3 5 10 15 15 20 21 21 23 26 25 28 24 30 37 35 27
12 11 11 18 19 15 19 4 9 7 13 9 9 3 11 12 14 13 10 8 7 7 6 6 7 7 9 9 6 9 6 8 11 15 15 17 17 18 23 17 22 31 28 25
6 5 5 4 2 7 10 9 8 13 5 10 11 12 13 14 12 10 8 7 6 6 6 6 6 8 8 7 9 7 6 8 5 4 5 5 8 11 14 16 15 18 25 39
9 10 3 4 8 7 9 6 7 14 10 13 13 14 14 15 12 11 9 8 8 8 8 8 9 10 10 9 9 8 8 9 5 5 7 6 6 3 5 7 10 8 11 19
3 6 4 3 5 6 8 8 7 15 14 16 15 15 15 16 13 11 9 8 8 6 6 6 6 6 8 9 11 12 10 10 8 6 6 6 5 7 7 7 4 4 7 8
4 2 2 3 10 7 5 3 5 12 14 10 13 14 13 11 10 9 9 7 6 5 5 5 4 5 4 3 3 3 4 7 8 6 5 4 5 5 7 7 6 10 12 11
Wind_Direction
209 222 224 230 236 245 318 290 206 148 96 204 203 242 158 172 202 174 195 187 186 183 183 179 177 177 176 176 174 172 167 172 164 170 166 167 169 158 163 171 127 148 161 160
225 224 224 232 238 252 258 267 237 142 150 239 206 211 188 167 195 182 201 186 190 187 181 182 181 180 180 177 177 177 176 179 170 171 174 179 178 171 169 176 162 159 162 173
225 218 229 233 239 236 208 233 227 245 142 226 267 246 216 171 186 177 197 196 194 192 184 184 186 184 182 182 180 181 180 183 169 179 177 182 176 173 154 168 176 179 175 170
230 237 214 232 231 234 235 223 264 185 239 263 192 268 193 174 184 194 197 192 194 195 192 187 189 190 188 189 187 186 184 187 180 178 183 178 183 177 180 175 171 162 169 174
232 226 234 219 231 230 250 245 223 240 259 253 220 246 186 171 189 191 202 183 199 194 193 190 191 191 192 191 192 190 190 192 191 187 178 183 177 184 183 180 179 177 183 180
243 233 234 231 223 229 238 250 236 252 239 249 246 237 193 190 191 186 192 206 198 195 194 195 193 191 193 193 194 194 197 194 193 196 177 188 192 187 191 194 191 195 198 198
233 239 223 234 225 220 229 226 232 222 228 239 236 226 231 107 159 186 182 197 199 199 194 194 193 193 193 193 195 196 203 201 199 202 199 195 198 188 192 191 199 202 200 203
224 222 227 212 231 222 217 229 229 219 221 228 228 227 245 236 307 173 188 190 194 200 195 194 197 196 195 194 194 195 201 211 205 205 205 202 196 198 188 203 197 211 210 206
241 230 220 230 220 238 223 223 240 252 242 255 214 197 170 146 198 170 199 181 191 197 201 197 197 198 198 198 197 196 198 204 204 207 211 213 207 195 206 206 205 206 219 214
258 268 225 215 213 228 241 216 224 240 247 248 239 200 228 181 203 193 184 186 192 196 200 199 200 197 201 202 201 200 202 204 202 203 211 215 215 209 203 208 212 199 215 219
262 258 270 208 200 219 219 234 221 237 234 246 244 233 183 133 172 164 181 199 198 197 199 201 200 199 200 202 203 203 203 204 204 203 208 210 211 211 208 211 215 210 204 221
253 259 245 227 210 216 235 215 233 232 228 240 257 251 207 177 141 139 216 24 274 200 200 199 198 199 198 202 203 204 204 206 208 208 204 213 210 208 211 212 218 219 214 216
339 249 251 250 197 203 228 241 232 234 238 230 229 241 99 87 80 116 62 37 248 227 196 194 195 196 196 200 202 204 203 208 208 209 210 209 209 212 212 217 213 219 218 221
292 264 254 244 230 211 216 236 237 231 236 240 226 232 167 164 154 137 89 46 91 204 185 189 191 191 191 197 200 201 204 207 209 207 209 213 213 214 216 213 221 219 220 225
281 262 257 259 268 258 214 216 237 236 236 237 232 231 237 196 112 93 93 74 89 135 159 291 185 187 191 196 201 202 205 206 206 213 210 212 214 216 215 220 221 224 222 225
306 295 271 263 255 258 269 243 212 227 238 239 246 246 215 132 93 83 73 91 63 35 37 37 55 178 193 197 203 205 205 206 206 209 211 209 214 218 217 215 225 225 227 229
282 275 276 251 245 255 246 239 237 223 227 237 235 244 253 97 86 69 69 73 67 40 12 49 54 45 44 182 211 208 207 207 208 208 210 212 215 221 222 225 226 229 232 233
252 267 284 274 260 232 235 223 242 244 230 227 232 87 65 91 92 82 71 84 76 68 36 25 230 260 230 200 193 200 207 205 206 206 210 212 211 214 220 224 228 232 235 239
238 250 264 263 255 256 187 172 227 232 192 38 63 83 102 119 105 64 70 84 97 100 88 89 108 342 267 224 221 193 183 196 199 203 207 213 213 216 216 215 227 240 244 245
191 250 251 261 262 201 315 67 5 327 194 91 42 109 134 184 245 112 111 95 96 99 98 74 112 186 147 188 208 184 186 188 189 184 199 196 199 201 214 221 217 251 265 250
205 205 226 235 261 149 37 356 329 214 83 106 135 159 175 229 49 127 125 120 116 108 102 93 100 127 95 83 117 172 193 191 189 190 203 202 208 206 223 243 260 273 262 257
221 191 209 240 245 244 3 325 317 346 359 69 74 110 106 106 113 120 128 123 115 101 95 97 95 90 86 80 87 89 131 178 206 213 213 227 230 227 228 246 256 241 261 269
282 10 323 348 15 58 26 26 4 333 293 85 87 95 113 115 116 117 120 116 103 93 83 78 84 77 67 83 82 107 112 97 102 135 177 216 239 240 240 228 254 246 248 263
320 27 281 234 66 67 60 6 29 44 73 101 98 104 111 108 104 106 107 101 93 86 84 81 76 74 72 70 68 69 86 78 73 86 91 78 72 90 137 173 228 215 235 226
294 310 1 148 100 116 68 40 38 63 86 87 99 101 101 97 96 97 93 87 90 78 58 56 63 62 58 59 63 61 61 82 77 78 81 112 116 125 110 136 156 212 262 247
229 120 13 355 116 81 92 42 60 60 82 95 97 91 89 94 99 109 103 93 81 64 51 38 17 2 353 2 5 25 67 62 66 65 71 74 106 116 119 111 47 12 10 19
Height
1499 1497 1493 1482 1476 1466 1472 1468 1469 1472 1481 1489 1489 1488 1494 1501 1507 1513 1517 1522 1525 1530 1535 1540 1545 1549 1553 1556 1560 1563 1566 1569 1573 1576 1578 1580 1582 1584 1586 1587 1589 1591 1593 1594
1491 1490 1481 1478 1473 1471 1481 1475 1472 1480 1480 1486 1476 1482 1481 1489 1498 1509 1515 1516 1521 1525 1531 1537 1542 1546 1551 1555 1558 1562 1565 1567 1571 1575 1578 1579 1582 1584 1585 1585 1589 1592 1594 1594
1483 1477 1479 1475 1475 1475 1475 1473 1470 1476 1479 1479 1478 1482 1475 1479 1492 1500 1507 1511 1515 1520 1525 1533 1539 1543 1548 1553 1556 1560 1563 1566 1569 1574 1576 1578 1580 1584 1585 1587 1589 1591 1593 1594
1475 1473 1471 1475 1474 1471 1475 1462 1465 1480 1479 1486 1468 1490 1472 1472 1484 1490 1494 1504 1511 1515 1521 1528 1535 1540 1545 1550 1554 1558 1561 1565 1568 1572 1575 1578 1579 1582 1585 1586 1588 1590 1592 1594
1471 1468 1468 1471 1470 1468 1469 1460 1465 1466 1473 1471 1472 1479 1458 1465 1478 1481 1488 1495 1503 1507 1515 1521 1528 1535 1541 1547 1551 1556 1559 1563 1566 1569 1573 1576 1578 1581 1584 1586 1586 1590 1591 1593
1467 1462 1460 1461 1463 1465 1467 1466 1465 1474 1470 1484 1464 1464 1455 1454 1460 1467 1479 1487 1493 1500 1508 1516 1525 1532 1538 1543 1548 1553 1556 1559 1563 1566 1568 1573 1575 1579 1582 1585 1587 1590 1590 1591
1467 1459 1456 1459 1461 1462 1467 1470 1486 1494 1487 1487 1452 1461 1452 1450 1454 1455 1467 1479 1486 1493 1501 1510 1518 1524 1531 1536 1542 1548 1552 1556 1560 1564 1566 1570 1573 1576 1580 1583 1586 1588 1589 1590
1469 1471 1453 1451 1456 1462 1462 1462 1473 1498 1485 1472 1448 1470 1454 1443 1449 1453 1459 1471 1481 1487 1493 1501 1510 1517 1524 1530 1536 1542 1546 1550 1556 1560 1563 1566 1570 1574 1577 1580 1584 1586 1587 1588
1461 1456 1446 1448 1456 1458 1458 1464 1453 1459 1449 1457 1442 1442 1440 1445 1450 1451 1457 1463 1472 1481 1486 1494 1503 1512 1519 1525 1529 1534 1539 1545 1549 1555 1559 1562 1566 1569 1574 1577 1579 1583 1585 1587
1454 1460 1439 1441 1453 1454 1451 1450 1469 1458 1481 1480 1450 1451 1450 1442 1449 1450 1454 1460 1466 1474 1482 1488 1496 1504 1513 1520 1526 1532 1536 1540 1545 1550 1554 1558 1561 1566 1570 1574 1575 1578 1582 1584
1461 1457 1444 1434 1443 1451 1452 1452 1450 1450 1454 1468 1470 1451 1426 1437 1440 1448 1452 1456 1461 1468 1475 1482 1489 1497 1506 1514 1521 1526 1531 1536 1540 1544 1549 1554 1558 1562 1567 1571 1573 1575 1578 1580
1465 1455 1455 1435 1432 1442 1440 1447 1448 1458 1468 1451 1449 1447 1418 1426 1439 1449 1452 1457 1458 1461 1468 1477 1484 1492 1500 1508 1515 1521 1527 1531 1535 1540 1545 1549 1554 1557 1561 1564 1568 1571 1573 1576
1475 1460 1465 1451 1435 1439 1449 1444 1442 1443 1444 1454 1462 1451 1425 1433 1442 1450 1455 1462 1463 1459 1464 1471 1480 1487 1494 1503 1510 1516 1522 1528 1532 1536 1540 1545 1549 1552 1556 1560 1563 1567 1569 1571
1488 1466 1458 1454 1445 1438 1453 1450 1445 1445 1453 1449 1444 1441 1432 1439 1446 1454 1461 1465 1463 1463 1465 1471 1478 1484 1491 1499 1506 1511 1517 1523 1527 1531 1535 1539 1544 1548 1552 1555 1559 1561 1563 1565
1479 1473 1463 1450 1437 1433 1435 1445 1446 1445 1443 1448 1440 1439 1430 1436 1440 1455 1464 1467 1468 1470 1472 1475 1480 1486 1492 1498 1504 1508 1513 1518 1523 1524 1529 1534 1539 1544 1547 1550 1553 1556 1558 1559
1479 1476 1465 1455 1443 1439 1438 1430 1435 1442 1440 1439 1437 1436 1430 1441 1451 1465 1471 1472 1477 1481 1481 1480 1480 1487 1493 1498 1502 1506 1510 1514 1519 1521 1525 1530 1534 1537 1541 1545 1548 1550 1552 1554
1489 1481 1467 1461 1447 1445 1447 1435 1429 1433 1434 1437 1445 1437 1434 1449 1465 1474 1479 1482 1485 1487 1487 1484 1485 1488 1491 1495 1501 1504 1507 1511 1514 1517 1521 1524 1528 1532 1535 1539 1542 1544 1545 1549
1486 1483 1475 1464 1446 1458 1430 1425 1428 1429 1429 1431 1435 1444 1463 1468 1475 1478 1482 1485 1488 1490 1492 1489 1486 1489 1493 1494 1496 1500 1504 1506 1510 1513 1516 1520 1522 1525 1529 1532 1536 1538 1541 1542
1480 1480 1477 1470 1452 1446 1423 1427 1430 1429 1434 1440 1445 1459 1466 1471 1474 1481 1485 1486 1488 1491 1492 1491 1490 1487 1499 1493 1498 1496 1496 1501 1506 1509 1512 1517 1520 1522 1524 1529 1531 1534 1537 1538
1474 1478 1481 1463 1454 1467 1457 1435 1441 1436 1449 1448 1453 1464 1469 1472 1465 1481 1486 1489 1491 1493 1493 1493 1488 1501 1494 1494 1499 1497 1495 1497 1499 1501 1507 1511 1513 1512 1519 1523 1523 1525 1531 1534
1471 1483 1475 1468 1460 1448 1459 1447 1452 1455 1463 1455 1462 1467 1475 1475 1479 1485 1488 1492 1494 1495 1496 1496 1497 1498 1496 1497 1492 1494 1495 1497 1497 1500 1502 1505 1508 1506 1517 1518 1516 1507 1520 1527
1461 1468 1471 1465 1460 1459 1474 1468 1474 1481 1473 1470 1475 1476 1480 1483 1486 1490 1493 1494 1495 1496 1497 1498 1499 1499 1492 1494 1498 1490 1496 1498 1497 1497 1499 1502 1507 1510 1512 1511 1512 1506 1504 1516
1476 1471 1472 1467 1468 1487 1485 1487 1485 1483 1480 1480 1481 1483 1485 1487 1490 1492 1495 1496 1497 1497 1498 1498 1499 1498 1498 1498 1496 1500 1500 1496 1499 1497 1498 1500 1502 1502 1501 1506 1507 1508 1511 1518
1465 1474 1475 1474 1487 1492 1491 1492 1489 1485 1485 1485 1487 1487 1489 1490 1493 1495 1498 1499 1499 1500 1500 1501 1501 1501 1502 1502 1502 1500 1499 1499 1502 1501 1501 1500 1502 1502 1504 1507 1509 1511 1514 1521
1486 1484 1482 1483 1489 1495 1494 1495 1492 1489 1490 1490 1491 1492 1494 1494 1496 1498 1500 1501 1501 1502 1503 1503 1503 1504 1505 1505 1504 1503 1502 1502 1503 1505 1505 1506 1507 1506 1506 1508 1513 1513 1513 1512
1483 1488 1491 1487 1489 1492 1495 1496 1494 1493 1494 1496 1495 1496 1497 1498 1499 1501 1502 1503 1504 1505 1505 1505 1505 1506 1506 1506 1505 1503 1503 1504 1506 1506 1507 1507 1508 1510 1508 1506 1505 1507 1508 1506